Terug naar catalogus

STARLINK-4774

ActiefCommunicatieVLEO
NORAD 56138·PAYLOAD·🇺🇸 United States

Gelanceerd Mar 29, 2023 vanaf Cape Canaveral Space Force Station

Loading…

Volgende Passages (komende 24 uur)

TLE

VersSource: CelesTrak SupGP

Epoch: Sep 14, 2026, 20:51 UTC

1 56138C 23046AX  26257.86923611 -.00021319  00000+0 -77233-3 0  2575
2 56138  42.9991 158.7920 0000955 248.3247 356.5883 15.27583003    13

Volg STARLINK-4774 in realtime met AllMySat

Download on the App Store